IRIDIUM 33 [-]

Last updated on Wed Jun 28 2023 00:03:02 GMT+0000 (Coordinated Universal Time)

1 24946U 97051C 23178.10425663 .00000321 00000+0 10795-3 0 9995 2 24946 86.3868 85.4084 0005668 273.2548 86.8000 14.34059384349381
UTC large
Height (km)
Speed (km/s)
/
Latitude / Longitude
Inclination (degrees)
Orbital Period (minutes)
Azimuth
Elevation
Range (km)
Doppler Factor

Next 0 passes for location: London (51.5072 / 0.1276)

Sorry there are no passes over London.